Time,TemperatureF,DewpointF,PressureIn,WindDirection,WindDirectionDegrees,WindSpeedMPH,WindSpeedGustMPH,Humidity,HourlyPrecipIn,Conditions,Clouds,dailyrainin,SoftwareType,DateUTC
2013-03-30 00:00:00,47.8,40.0,30.23,NNW,328,0.0,0.0,74,0.00,,,0.00,weatherlink.com 1.10,2013-03-30 04:00:00,
2013-03-30 00:15:00,47.3,40.0,30.22,NNW,328,0.0,1.0,75,0.00,,,0.00,weatherlink.com 1.10,2013-03-30 04:15:00,
2013-03-30 00:30:00,47.4,40.0,30.22,East,84,0.0,1.0,75,0.00,,,0.00,weatherlink.com 1.10,2013-03-30 04:30:00,
2013-03-30 00:45:00,47.7,40.0,30.21,NW,309,0.0,1.0,74,0.00,,,0.00,weatherlink.com 1.10,2013-03-30 04:45:00,
2013-03-30 01:00:00,47.7,40.0,30.21,ENE,59,0.0,1.0,74,0.00,,,0.00,weatherlink.com 1.10,2013-03-30 05:00:00,
2013-03-30 01:15:00,47.6,40.0,30.22,ESE,107,0.0,2.0,75,0.00,,,0.00,weatherlink.com 1.10,2013-03-30 05:15:00,
2013-03-30 01:30:00,47.5,41.0,30.22,SSE,153,0.0,1.0,77,0.00,,,0.00,weatherlink.com 1.10,2013-03-30 05:30:00,
2013-03-30 01:45:00,47.4,41.0,30.22,SSE,153,0.0,1.0,77,0.00,,,0.00,weatherlink.com 1.10,2013-03-30 05:45:00,
2013-03-30 02:00:00,46.8,41.0,30.23,SSE,152,1.0,1.0,80,0.00,,,0.00,weatherlink.com 1.10,2013-03-30 06:00:00,
2013-03-30 02:15:00,46.5,41.0,30.22,SSE,152,0.0,0.0,82,0.00,,,0.00,weatherlink.com 1.10,2013-03-30 06:15:00,
2013-03-30 02:30:00,46.2,41.0,30.22,SSE,152,0.0,1.0,82,0.00,,,0.00,weatherlink.com 1.10,2013-03-30 06:30:00,
2013-03-30 02:45:00,46.0,41.0,30.21,SSE,153,0.0,1.0,83,0.00,,,0.00,weatherlink.com 1.10,2013-03-30 06:45:00,
2013-03-30 03:00:00,45.5,42.0,30.20,SSE,152,0.0,1.0,87,0.00,,,0.00,weatherlink.com 1.10,2013-03-30 07:00:00,
2013-03-30 03:15:00,45.2,42.0,30.20,SSE,152,0.0,0.0,89,0.00,,,0.00,weatherlink.com 1.10,2013-03-30 07:15:00,
2013-03-30 03:30:00,45.0,42.0,30.20,SSE,153,0.0,1.0,90,0.00,,,0.00,weatherlink.com 1.10,2013-03-30 07:30:00,
2013-03-30 03:45:00,44.8,42.0,30.20,SSE,152,0.0,0.0,90,0.00,,,0.00,weatherlink.com 1.10,2013-03-30 07:45:00,
2013-03-30 04:00:00,44.8,42.0,30.19,SSE,153,0.0,1.0,90,0.00,,,0.00,weatherlink.com 1.10,2013-03-30 08:00:00,
2013-03-30 04:15:00,44.9,42.0,30.19,SSE,160,1.0,1.0,90,0.00,,,0.00,weatherlink.com 1.10,2013-03-30 08:15:00,
2013-03-30 04:30:00,45.0,42.0,30.20,SSE,162,1.0,1.0,90,0.00,,,0.00,weatherlink.com 1.10,2013-03-30 08:30:00,
2013-03-30 04:45:00,45.3,43.0,30.19,SSE,162,0.0,1.0,90,0.00,,,0.00,weatherlink.com 1.10,2013-03-30 08:45:00,
2013-03-30 05:00:00,44.8,43.0,30.18,SSE,162,0.0,1.0,92,0.00,,,0.00,weatherlink.com 1.10,2013-03-30 09:00:00,
2013-03-30 05:15:00,44.8,43.0,30.20,SSE,162,0.0,1.0,92,0.00,,,0.00,weatherlink.com 1.10,2013-03-30 09:15:00,
2013-03-30 05:30:00,44.6,43.0,30.20,SSE,157,0.0,2.0,92,0.00,,,0.00,weatherlink.com 1.10,2013-03-30 09:30:00,
2013-03-30 05:45:00,44.6,42.0,30.20,ESE,114,0.0,2.0,91,0.00,,,0.00,weatherlink.com 1.10,2013-03-30 09:45:00,
2013-03-30 06:00:00,44.6,43.0,30.20,SSW,207,1.0,2.0,92,0.00,,,0.00,weatherlink.com 1.10,2013-03-30 10:00:00,
2013-03-30 06:15:00,44.4,42.0,30.19,SSW,207,0.0,1.0,92,0.00,,,0.00,weatherlink.com 1.10,2013-03-30 10:15:00,
2013-03-30 06:30:00,44.4,42.0,30.19,SSW,203,2.0,2.0,92,0.00,,,0.00,weatherlink.com 1.10,2013-03-30 10:30:00,
2013-03-30 06:45:00,44.3,42.0,30.19,SSW,202,0.0,1.0,92,0.00,,,0.00,weatherlink.com 1.10,2013-03-30 10:45:00,
2013-03-30 07:00:00,44.0,42.0,30.19,SSW,200,0.0,1.0,93,0.00,,,0.00,weatherlink.com 1.10,2013-03-30 11:00:00,
2013-03-30 07:15:00,43.8,42.0,30.20,SSW,200,0.0,0.0,93,0.00,,,0.00,weatherlink.com 1.10,2013-03-30 11:15:00,
2013-03-30 07:30:00,43.6,42.0,30.20,SSW,200,0.0,0.0,93,0.00,,,0.00,weatherlink.com 1.10,2013-03-30 11:30:00,
2013-03-30 07:45:00,43.7,42.0,30.20,SSW,200,0.0,0.0,93,0.00,,,0.00,weatherlink.com 1.10,2013-03-30 11:45:00,
2013-03-30 08:00:00,44.0,42.0,30.21,SSW,200,0.0,1.0,93,0.00,,,0.00,weatherlink.com 1.10,2013-03-30 12:00:00,
2013-03-30 08:15:00,44.3,42.0,30.21,SSW,200,0.0,0.0,93,0.00,,,0.00,weatherlink.com 1.10,2013-03-30 12:15:00,
2013-03-30 08:30:00,44.7,43.0,30.21,SSW,200,0.0,0.0,93,0.00,,,0.00,weatherlink.com 1.10,2013-03-30 12:30:00,
2013-03-30 08:45:00,45.5,43.0,30.21,SSW,200,0.0,1.0,90,0.00,,,0.00,weatherlink.com 1.10,2013-03-30 12:45:00,
2013-03-30 09:00:00,46.1,43.0,30.21,SSW,200,0.0,0.0,90,0.00,,,0.00,weatherlink.com 1.10,2013-03-30 13:00:00,
2013-03-30 09:15:00,46.8,44.0,30.21,SSW,205,0.0,0.0,88,0.00,,,0.00,weatherlink.com 1.10,2013-03-30 13:15:00,
2013-03-30 09:30:00,47.5,44.0,30.21,SSW,203,0.0,0.0,87,0.00,,,0.00,weatherlink.com 1.10,2013-03-30 13:30:00,
2013-03-30 09:45:00,48.4,45.0,30.21,SSW,204,0.0,0.0,87,0.00,,,0.00,weatherlink.com 1.10,2013-03-30 13:45:00,
2013-03-30 10:00:00,49.5,45.0,30.20,SSW,204,0.0,0.0,85,0.00,,,0.00,weatherlink.com 1.10,2013-03-30 14:00:00,
2013-03-30 10:15:00,50.2,45.0,30.21,SW,228,2.0,3.0,81,0.00,,,0.00,weatherlink.com 1.10,2013-03-30 14:15:00,
2013-03-30 10:30:00,51.0,45.0,30.21,West,259,0.0,2.0,79,0.00,,,0.00,weatherlink.com 1.10,2013-03-30 14:30:00,
2013-03-30 10:45:00,52.0,46.0,30.20,West,260,1.0,3.0,81,0.00,,,0.00,weatherlink.com 1.10,2013-03-30 14:45:00,
2013-03-30 11:01:00,53.9,45.0,30.20,WSW,250,1.0,7.0,73,0.00,,,0.00,weatherlink.com 1.10,2013-03-30 15:01:00,
2013-03-30 11:15:00,55.2,46.0,30.19,WSW,245,1.0,3.0,70,0.00,,,0.00,weatherlink.com 1.10,2013-03-30 15:15:00,
2013-03-30 11:31:00,56.6,45.0,30.19,SSW,204,1.0,3.0,66,0.00,,,0.00,weatherlink.com 1.10,2013-03-30 15:31:00,
2013-03-30 11:46:00,57.8,44.0,30.19,WNW,284,2.0,3.0,61,0.01,,,0.01,weatherlink.com 1.10,2013-03-30 15:46:00,
2013-03-30 12:31:00,60.4,43.0,30.17,NW,314,2.0,4.0,53,0.01,,,0.01,weatherlink.com 1.10,2013-03-30 16:31:00,
2013-03-30 12:46:00,60.9,43.0,30.16,ESE,120,1.0,4.0,52,0.00,,,0.01,weatherlink.com 1.10,2013-03-30 16:46:00,
2013-03-30 13:01:00,62.6,42.0,30.15,West,260,1.0,4.0,48,0.00,,,0.01,weatherlink.com 1.10,2013-03-30 17:01:00,
2013-03-30 13:16:00,63.2,44.0,30.15,WSW,246,4.0,5.0,49,0.00,,,0.01,weatherlink.com 1.10,2013-03-30 17:16:00,
2013-03-30 13:31:00,64.7,43.0,30.14,SSW,201,3.0,5.0,46,0.00,,,0.01,weatherlink.com 1.10,2013-03-30 17:31:00,
2013-03-30 13:46:00,63.8,44.0,30.14,WSW,240,1.0,7.0,48,0.00,,,0.01,weatherlink.com 1.10,2013-03-30 17:46:00,
2013-03-30 14:16:00,65.4,43.0,30.13,SSW,204,0.0,5.0,44,0.00,,,0.01,weatherlink.com 1.10,2013-03-30 18:16:00,
2013-03-30 14:31:00,63.9,43.0,30.13,NNW,328,1.0,4.0,47,0.00,,,0.01,weatherlink.com 1.10,2013-03-30 18:31:00,
2013-03-30 14:46:00,64.8,44.0,30.12,West,267,1.0,3.0,47,0.00,,,0.01,weatherlink.com 1.10,2013-03-30 18:46:00,
2013-03-30 15:16:00,66.9,41.0,30.10,NNW,340,2.0,5.0,39,0.00,,,0.01,weatherlink.com 1.10,2013-03-30 19:16:00,
2013-03-30 15:31:00,67.6,40.0,30.09,SW,222,1.0,3.0,37,0.00,,,0.01,weatherlink.com 1.10,2013-03-30 19:31:00,
2013-03-30 15:46:00,68.4,42.0,30.09,SW,222,0.0,4.0,38,0.00,,,0.01,weatherlink.com 1.10,2013-03-30 19:46:00,
2013-03-30 16:01:00,68.0,42.0,30.08,WNW,284,1.0,4.0,39,0.00,,,0.01,weatherlink.com 1.10,2013-03-30 20:01:00,
2013-03-30 16:16:00,68.5,42.0,30.08,SSW,205,1.0,5.0,39,0.00,,,0.01,weatherlink.com 1.10,2013-03-30 20:16:00,
2013-03-30 16:31:00,68.7,40.0,30.07,SE,138,2.0,3.0,35,0.00,,,0.01,weatherlink.com 1.10,2013-03-30 20:31:00,
2013-03-30 16:47:00,67.7,41.0,30.06,West,276,1.0,4.0,38,0.00,,,0.01,weatherlink.com 1.10,2013-03-30 20:47:00,
2013-03-30 17:03:00,67.6,40.0,30.06,SW,221,2.0,3.0,37,0.00,,,0.01,weatherlink.com 1.10,2013-03-30 21:03:00,
2013-03-30 17:17:00,67.8,40.0,30.06,SSE,167,0.0,4.0,36,0.00,,,0.01,weatherlink.com 1.10,2013-03-30 21:17:00,
2013-03-30 17:32:00,67.2,41.0,30.06,NW,318,2.0,4.0,39,0.00,,,0.01,weatherlink.com 1.10,2013-03-30 21:32:00,
2013-03-30 17:47:00,66.7,40.0,30.06,WSW,238,0.0,5.0,38,0.00,,,0.01,weatherlink.com 1.10,2013-03-30 21:47:00,
2013-03-30 18:02:00,65.9,39.0,30.05,North,352,2.0,3.0,38,0.00,,,0.01,weatherlink.com 1.10,2013-03-30 22:02:00,
2013-03-30 18:17:00,65.1,40.0,30.05,SW,228,2.0,4.0,40,0.00,,,0.01,weatherlink.com 1.10,2013-03-30 22:17:00,
2013-03-30 18:32:00,64.6,40.0,30.05,SW,233,0.0,3.0,40,0.00,,,0.01,weatherlink.com 1.10,2013-03-30 22:32:00,
2013-03-30 18:47:00,63.9,39.0,30.05,SW,218,1.0,2.0,40,0.00,,,0.01,weatherlink.com 1.10,2013-03-30 22:47:00,
2013-03-30 19:02:00,63.5,42.0,30.05,SSE,163,0.0,1.0,45,0.00,,,0.01,weatherlink.com 1.10,2013-03-30 23:02:00,
2013-03-30 19:17:00,62.8,40.0,30.05,SSW,204,0.0,1.0,43,0.00,,,0.01,weatherlink.com 1.10,2013-03-30 23:17:00,
2013-03-30 19:32:00,61.8,41.0,30.05,SSW,204,0.0,0.0,46,0.00,,,0.01,weatherlink.com 1.10,2013-03-30 23:32:00,
2013-03-30 19:47:00,60.9,40.0,30.05,SSW,204,0.0,1.0,47,0.00,,,0.01,weatherlink.com 1.10,2013-03-30 23:47:00,
2013-03-30 20:02:00,60.2,40.0,30.05,SSW,204,0.0,0.0,47,0.00,,,0.01,weatherlink.com 1.10,2013-03-31 00:02:00,
2013-03-30 20:17:00,59.4,40.0,30.05,SSW,205,0.0,0.0,49,0.00,,,0.01,weatherlink.com 1.10,2013-03-31 00:17:00,
2013-03-30 20:32:00,57.6,40.0,30.05,SSW,204,0.0,1.0,53,0.00,,,0.01,weatherlink.com 1.10,2013-03-31 00:32:00,
2013-03-30 20:47:00,56.6,40.0,30.05,SSW,205,0.0,0.0,54,0.00,,,0.01,weatherlink.com 1.10,2013-03-31 00:47:00,
2013-03-30 21:02:00,55.1,41.0,30.05,SSW,205,0.0,0.0,59,0.00,,,0.01,weatherlink.com 1.10,2013-03-31 01:02:00,
2013-03-30 21:17:00,53.6,40.0,30.05,SSW,205,0.0,1.0,61,0.00,,,0.01,weatherlink.com 1.10,2013-03-31 01:17:00,
2013-03-30 21:32:00,52.7,41.0,30.04,SSW,205,0.0,1.0,65,0.00,,,0.01,weatherlink.com 1.10,2013-03-31 01:32:00,
2013-03-30 21:47:00,52.5,42.0,30.04,SSW,205,0.0,1.0,67,0.00,,,0.01,weatherlink.com 1.10,2013-03-31 01:47:00,
2013-03-30 22:02:00,51.4,41.0,30.04,SSW,205,0.0,0.0,68,0.00,,,0.01,weatherlink.com 1.10,2013-03-31 02:02:00,
2013-03-30 22:17:00,50.7,40.0,30.04,SSW,205,0.0,0.0,68,0.00,,,0.01,weatherlink.com 1.10,2013-03-31 02:17:00,
2013-03-30 22:32:00,50.7,41.0,30.04,SSW,205,0.0,1.0,69,0.00,,,0.01,weatherlink.com 1.10,2013-03-31 02:32:00,
2013-03-30 22:47:00,51.1,42.0,30.04,SSW,205,0.0,0.0,72,0.00,,,0.01,weatherlink.com 1.10,2013-03-31 02:47:00,
2013-03-30 23:02:00,50.8,42.0,30.04,SSW,205,0.0,0.0,71,0.00,,,0.01,weatherlink.com 1.10,2013-03-31 03:02:00,
2013-03-30 23:17:00,51.6,41.0,30.04,SSW,205,0.0,0.0,67,0.00,,,0.01,weatherlink.com 1.10,2013-03-31 03:17:00,
2013-03-30 23:32:00,52.9,41.0,30.05,SSW,204,0.0,1.0,64,0.00,,,0.01,weatherlink.com 1.10,2013-03-31 03:32:00,
2013-03-30 23:47:00,53.1,42.0,30.05,SSW,205,0.0,1.0,65,0.00,,,0.01,weatherlink.com 1.10,2013-03-31 03:47:00,